| time (UTC) | temp F | wind direction | speed MPH | gust MPH | rain 1hr in | rain 24hr in | rain mn in | humidity % | barometer mb |
| 20260504222212 | 67 | 275 | 2.0 | 2.0 | 0.00 | 0.00 | 0.00 | 44 | 999.5 |
| 20260504221709 | 68 | 286 | 2.0 | 3.0 | 0.00 | 0.00 | 0.00 | 42 | 999.6 |
| 20260504221206 | 67 | 18 | 1.0 | 1.0 | 0.00 | 0.00 | 0.00 | 43 | 999.6 |
| 20260504220702 | 68 | 358 | 2.0 | 2.0 | 0.00 | 0.00 | 0.00 | 43 | 999.5 |
| 20260504220200 | 68 | 17 | 1.0 | 1.0 | 0.00 | 0.00 | 0.00 | 42 | 999.6 |
| 20260504215656 | 68 | 300 | 2.0 | 3.0 | 0.00 | 0.00 | 0.00 | 43 | 999.6 |
| 20260504215154 | 67 | 301 | 3.0 | 3.0 | 0.00 | 0.00 | 0.00 | 43 | 999.5 |
| 20260504214649 | 67 | 298 | 2.0 | 2.0 | 0.00 | 0.00 | 0.00 | 43 | 999.4 |
| 20260504214146 | 67 | 307 | 3.0 | 3.0 | 0.00 | 0.00 | 0.00 | 43 | 999.6 |
| 20260504213643 | 67 | 296 | 4.0 | 4.0 | 0.00 | 0.00 | 0.00 | 44 | 999.6 |
| 20260504213139 | 66 | 291 | 4.0 | 6.0 | 0.00 | 0.00 | 0.00 | 44 | 999.7 |
| 20260504212636 | 67 | 325 | 3.0 | 3.0 | 0.00 | 0.00 | 0.00 | 45 | 999.5 |
| 20260504212133 | 67 | 288 | 6.0 | 7.0 | 0.00 | 0.00 | 0.00 | 45 | 999.5 |
| 20260504211630 | 66 | 314 | 3.0 | 3.0 | 0.00 | 0.00 | 0.00 | 46 | 999.5 |
| 20260504211126 | 66 | 347 | 2.0 | 2.0 | 0.00 | 0.00 | 0.00 | 46 | 999.8 |
| 20260504210624 | 65 | 312 | 4.0 | 6.0 | 0.00 | 0.00 | 0.00 | 46 | 999.7 |
| 20260504210120 | 65 | 346 | 2.0 | 2.0 | 0.00 | 0.00 | 0.00 | 47 | 999.8 |
| 20260504205618 | 64 | 218 | 3.0 | 4.0 | 0.00 | 0.00 | 0.00 | 49 | 999.7 |
| 20260504205116 | 64 | 52 | 1.0 | 1.0 | 0.00 | 0.00 | 0.00 | 50 | 999.6 |
| 20260504204614 | 64 | 271 | 3.0 | 3.0 | 0.00 | 0.00 | 0.00 | 48 | 999.5 |
| 20260504204112 | 64 | 318 | 2.0 | 3.0 | 0.00 | 0.00 | 0.00 | 48 | 999.5 |
| 20260504203611 | 64 | 276 | 5.0 | 6.0 | 0.00 | 0.00 | 0.00 | 48 | 999.7 |
| 20260504203108 | 64 | 285 | 6.0 | 8.0 | 0.00 | 0.00 | 0.00 | 49 | 999.8 |
| 20260504202603 | 65 | 295 | 3.0 | 4.0 | 0.00 | 0.00 | 0.00 | 49 | 999.7 |
| 20260504202100 | 66 | 298 | 4.0 | 4.0 | 0.00 | 0.00 | 0.00 | 46 | 999.8 |
| 20260504201557 | 65 | 346 | 3.0 | 4.0 | 0.00 | 0.00 | 0.00 | 49 | 999.8 |
| 20260504201055 | 64 | 288 | 3.0 | 3.0 | 0.00 | 0.00 | 0.00 | 50 | 999.7 |
| 20260504200550 | 65 | 285 | 6.0 | 7.0 | 0.00 | 0.00 | 0.00 | 50 | 999.9 |
| 20260504200048 | 66 | 281 | 4.0 | 4.0 | 0.00 | 0.00 | 0.00 | 48 | 999.9 |
| 20260504195544 | 66 | 316 | 8.0 | 9.0 | 0.00 | 0.00 | 0.00 | 48 | 999.8 |
| 20260504195040 | 64 | 303 | 5.0 | 6.0 | 0.00 | 0.00 | 0.00 | 52 | 999.7 |
| 20260504194537 | 64 | 285 | 4.0 | 4.0 | 0.00 | 0.00 | 0.00 | 52 | 999.7 |
| 20260504194032 | 63 | 353 | 3.0 | 4.0 | 0.00 | 0.00 | 0.00 | 54 | 1000.0 |
| 20260504193529 | 61 | 277 | 3.0 | 3.0 | 0.00 | 0.00 | 0.00 | 57 | 1000.1 |
| 20260504193028 | 61 | 289 | 3.0 | 3.0 | 0.00 | 0.00 | 0.00 | 59 | 1000.1 |
| 20260504192526 | 61 | 258 | 2.0 | 2.0 | 0.00 | 0.00 | 0.00 | 59 | 1000.1 |
| 20260504192024 | 60 | 37 | 1.0 | 1.0 | 0.00 | 0.00 | 0.00 | 61 | 1000.2 |
| 20260504191521 | 60 | 294 | 4.0 | 4.0 | 0.00 | 0.00 | 0.00 | 61 | 1000.2 |
| 20260504191017 | 60 | 335 | 2.0 | 2.0 | 0.00 | 0.00 | 0.00 | 63 | 1000.2 |
| 20260504190513 | 61 | 344 | 2.0 | 2.0 | 0.00 | 0.00 | 0.00 | 61 | 1000.2 |
| 20260504190010 | 61 | 323 | 2.0 | 3.0 | 0.00 | 0.00 | 0.00 | 65 | 1000.3 |
| 20260504185507 | 61 | 311 | 3.0 | 4.0 | 0.00 | 0.00 | 0.00 | 61 | 1000.2 |
| 20260504185004 | 60 | 0 | 2.0 | 2.0 | 0.00 | 0.00 | 0.00 | 64 | 1000.3 |
| 20260504184459 | 60 | 0 | 2.0 | 2.0 | 0.00 | 0.00 | 0.00 | 64 | 1000.3 |
| 20260504183954 | 59 | 282 | 2.0 | 3.0 | 0.00 | 0.00 | 0.00 | 67 | 1000.4 |
| 20260504183452 | 58 | 341 | 2.0 | 2.0 | 0.00 | 0.00 | 0.00 | 71 | 1000.5 |
| 20260504182950 | 57 | 10 | 2.0 | 2.0 | 0.00 | 0.00 | 0.00 | 74 | 1000.6 |
| 20260504182446 | 56 | 44 | 1.0 | 2.0 | 0.00 | 0.00 | 0.00 | 74 | 1000.4 |
| 20260504181944 | 56 | 43 | 1.0 | 1.0 | 0.00 | 0.00 | 0.00 | 74 | 1000.4 |
| 20260504181441 | 56 | 358 | 1.0 | 2.0 | 0.00 | 0.00 | 0.00 | 75 | 1000.4 |
| 20260504180939 | 56 | 37 | 0.0 | 1.0 | 0.00 | 0.00 | 0.00 | 73 | 1000.2 |
| 20260504180438 | 56 | 308 | 2.0 | 2.0 | 0.00 | 0.00 | 0.00 | 75 | 1000.4 |
| 20260504175936 | 56 | 58 | 0.0 | 1.0 | 0.00 | 0.00 | 0.00 | 77 | 1000.3 |
| 20260504175432 | 56 | 261 | 2.0 | 3.0 | 0.00 | 0.00 | 0.00 | 77 | 1000.3 |
| 20260504174930 | 55 | 32 | 1.0 | 1.0 | 0.00 | 0.00 | 0.00 | 77 | 1000.5 |
| 20260504174427 | 56 | 85 | 1.0 | 1.0 | 0.00 | 0.00 | 0.00 | 77 | 1000.5 |
| 20260504173925 | 56 | 33 | 1.0 | 1.0 | 0.00 | 0.00 | 0.00 | 77 | 1000.7 |
| 20260504173421 | 56 | 50 | 1.0 | 1.0 | 0.00 | 0.00 | 0.00 | 77 | 1000.5 |
| 20260504172919 | 57 | 343 | 3.0 | 3.0 | 0.00 | 0.00 | 0.00 | 71 | 1000.5 |
| 20260504172415 | 58 | 297 | 5.0 | 6.0 | 0.00 | 0.00 | 0.00 | 64 | 1000.6 |
| 20260504171911 | 59 | 294 | 6.0 | 7.0 | 0.00 | 0.00 | 0.00 | 59 | 1000.1 |
| 20260504171409 | 60 | 288 | 7.0 | 8.0 | 0.00 | 0.00 | 0.00 | 53 | 1000.2 |
| 20260504170905 | 61 | 291 | 2.0 | 7.0 | 0.00 | 0.00 | 0.00 | 51 | 999.9 |
| 20260504170402 | 61 | 301 | 7.0 | 9.0 | 0.00 | 0.00 | 0.00 | 48 | 999.6 |
| 20260504160320 | 61 | 259 | 6.0 | 6.0 | 0.00 | 0.00 | 0.00 | 52 | 999.3 |
| 20260504150745 | 56 | 2 | 2.0 | 2.0 | 0.00 | 0.00 | 0.00 | 60 | 1000.3 |
| 20260504150242 | 56 | 293 | 3.0 | 6.0 | 0.00 | 0.00 | 0.00 | 60 | 1000.5 |
| 20260504141212 | 54 | 296 | 5.0 | 6.0 | 0.00 | 0.00 | 0.00 | 66 | 1001.4 |
| 20260504140708 | 53 | 298 | 2.0 | 2.0 | 0.00 | 0.00 | 0.00 | 66 | 1001.2 |
| 20260504140203 | 53 | 299 | 6.0 | 7.0 | 0.00 | 0.00 | 0.00 | 66 | 1001.3 |
| 20260504130632 | 49 | 77 | 0.0 | 0.0 | 0.00 | 0.00 | 0.00 | 69 | 1002.3 |
| 20260504130129 | 50 | 333 | 2.0 | 2.0 | 0.00 | 0.00 | 0.00 | 66 | 1002.0 |
| 20260504110520 | 33 | 0 | 0.0 | 1.0 | 0.00 | 0.00 | 0.00 | 96 | 1002.5 |
| 20260504100442 | 32 | 6 | 0.0 | 1.0 | 0.00 | 0.00 | 0.00 | 98 | 1002.3 |
| 20260504081835 | 29 | 6 | 1.0 | 1.0 | 0.00 | 0.00 | 0.00 | 99 | 1002.0 |
| 20260504081332 | 29 | 6 | 0.0 | 1.0 | 0.00 | 0.00 | 0.00 | 99 | 1002.0 |
| 20260504080827 | 29 | 6 | 0.0 | 0.0 | 0.00 | 0.00 | 0.00 | 99 | 1002.1 |
| 20260504080325 | 29 | 6 | 0.0 | 0.0 | 0.00 | 0.00 | 0.00 | 99 | 1002.1 |
| 20260504070252 | 30 | 7 | 1.0 | 1.0 | 0.00 | 0.00 | 0.00 | 98 | 1002.1 |
| 20260504060213 | 31 | 8 | 0.0 | 1.0 | 0.00 | 0.00 | 0.00 | 96 | 1002.0 |
| 20260504050640 | 32 | 10 | 0.0 | 0.0 | 0.00 | 0.00 | 0.00 | 94 | 1002.0 |
| 20260504050137 | 32 | 10 | 0.0 | 0.0 | 0.00 | 0.00 | 0.00 | 94 | 1001.7 |
| 20260504045634 | 33 | 10 | 0.0 | 0.0 | 0.00 | 0.00 | 0.00 | 94 | 1001.8 |
| 20260504045134 | 33 | 10 | 0.0 | 0.0 | 0.00 | 0.00 | 0.00 | 93 | 1001.9 |
| 20260504044632 | 33 | 10 | 0.0 | 0.0 | 0.00 | 0.00 | 0.00 | 92 | 1002.0 |
| 20260504044129 | 33 | 10 | 0.0 | 0.0 | 0.00 | 0.00 | 0.00 | 90 | 1002.1 |
| 20260504043626 | 34 | 10 | 1.0 | 1.0 | 0.00 | 0.00 | 0.00 | 89 | 1001.9 |
| 20260504043123 | 34 | 10 | 0.0 | 0.0 | 0.00 | 0.00 | 0.00 | 89 | 1002.0 |
| 20260504042620 | 35 | 10 | 0.0 | 0.0 | 0.00 | 0.00 | 0.00 | 88 | 1001.9 |
| 20260504042117 | 35 | 10 | 0.0 | 0.0 | 0.00 | 0.00 | 0.00 | 85 | 1001.9 |
| 20260504041613 | 35 | 10 | 0.0 | 0.0 | 0.00 | 0.00 | 0.00 | 85 | 1002.0 |
| 20260504041109 | 35 | 10 | 0.0 | 0.0 | 0.00 | 0.00 | 0.00 | 86 | 1002.1 |
| 20260504040607 | 35 | 10 | 0.0 | 0.0 | 0.00 | 0.00 | 0.00 | 88 | 1002.0 |
| 20260504040103 | 34 | 10 | 0.0 | 0.0 | 0.00 | 0.00 | 0.00 | 89 | 1001.8 |
| 20260504035600 | 35 | 10 | 0.0 | 0.0 | 0.00 | 0.00 | 0.00 | 88 | 1001.9 |
| 20260504035056 | 34 | 10 | 0.0 | 0.0 | 0.00 | 0.00 | 0.00 | 88 | 1001.9 |
| 20260504034554 | 34 | 10 | 0.0 | 0.0 | 0.00 | 0.00 | 0.00 | 88 | 1001.8 |
| 20260504034051 | 35 | 10 | 0.0 | 0.0 | 0.00 | 0.00 | 0.00 | 88 | 1001.7 |
| 20260504033549 | 35 | 10 | 1.0 | 1.0 | 0.00 | 0.00 | 0.00 | 88 | 1001.6 |
| 20260504033046 | 35 | 10 | 1.0 | 1.0 | 0.00 | 0.00 | 0.00 | 88 | 1001.6 |
| 20260504032543 | 35 | 10 | 1.0 | 1.0 | 0.00 | 0.00 | 0.00 | 88 | 1001.7 |
| 20260504032040 | 35 | 10 | 0.0 | 1.0 | 0.00 | 0.00 | 0.00 | 87 | 1001.9 |
| 20260504031537 | 36 | 10 | 0.0 | 0.0 | 0.00 | 0.00 | 0.00 | 86 | 1001.6 |
| 20260504031033 | 36 | 10 | 0.0 | 0.0 | 0.00 | 0.00 | 0.00 | 84 | 1001.7 |
| 20260504030531 | 36 | 10 | 0.0 | 0.0 | 0.00 | 0.01 | 0.01 | 84 | 1001.5 |
| 20260504030026 | 37 | 10 | 0.0 | 0.0 | 0.00 | 0.01 | 0.01 | 84 | 1001.6 |
| 20260504025524 | 37 | 10 | 0.0 | 0.0 | 0.00 | 0.01 | 0.01 | 83 | 1001.6 |
| 20260504025020 | 38 | 10 | 1.0 | 1.0 | 0.00 | 0.01 | 0.01 | 81 | 1001.9 |
| 20260504024517 | 38 | 10 | 0.0 | 1.0 | 0.00 | 0.01 | 0.01 | 79 | 1001.8 |
| 20260504024014 | 39 | 10 | 1.0 | 1.0 | 0.00 | 0.01 | 0.01 | 77 | 1001.5 |
| 20260504023511 | 39 | 10 | 1.0 | 1.0 | 0.00 | 0.01 | 0.01 | 75 | 1001.6 |
| 20260504023007 | 40 | 10 | 1.0 | 1.0 | 0.00 | 0.01 | 0.01 | 72 | 1001.6 |
| 20260504022503 | 40 | 10 | 1.0 | 1.0 | 0.00 | 0.01 | 0.01 | 71 | 1001.7 |
| 20260504021959 | 41 | 10 | 1.0 | 1.0 | 0.00 | 0.01 | 0.01 | 71 | 1001.6 |
| 20260504021457 | 41 | 10 | 1.0 | 1.0 | 0.00 | 0.01 | 0.01 | 70 | 1001.6 |
| 20260504020954 | 41 | 10 | 1.0 | 1.0 | 0.00 | 0.01 | 0.01 | 70 | 1001.7 |
| 20260504020450 | 41 | 10 | 1.0 | 1.0 | 0.00 | 0.01 | 0.01 | 69 | 1001.6 |
| 20260504015947 | 41 | 10 | 1.0 | 1.0 | 0.00 | 0.01 | 0.01 | 69 | 1001.5 |
| 20260504015443 | 41 | 10 | 1.0 | 1.0 | 0.00 | 0.01 | 0.01 | 68 | 1001.5 |
| 20260504014939 | 42 | 10 | 1.0 | 1.0 | 0.00 | 0.01 | 0.01 | 68 | 1001.7 |
| 20260504014435 | 42 | 10 | 1.0 | 1.0 | 0.00 | 0.01 | 0.01 | 67 | 1001.5 |
| 20260504013932 | 42 | 12 | 1.0 | 2.0 | 0.00 | 0.01 | 0.01 | 65 | 1001.7 |
| 20260504013431 | 43 | 24 | 0.0 | 1.0 | 0.00 | 0.01 | 0.01 | 63 | 1001.5 |
| 20260504012927 | 43 | 24 | 1.0 | 1.0 | 0.00 | 0.01 | 0.01 | 61 | 1001.4 |
| 20260504012425 | 43 | 24 | 0.0 | 0.0 | 0.00 | 0.01 | 0.01 | 60 | 1001.2 |
| 20260504011922 | 44 | 24 | 0.0 | 1.0 | 0.00 | 0.01 | 0.01 | 59 | 1001.3 |
| 20260504011419 | 44 | 23 | 1.0 | 1.0 | 0.00 | 0.01 | 0.01 | 58 | 1001.1 |
| 20260504010915 | 44 | 11 | 2.0 | 2.0 | 0.00 | 0.01 | 0.01 | 57 | 1001.1 |
| 20260504010411 | 45 | 347 | 2.0 | 2.0 | 0.00 | 0.01 | 0.01 | 56 | 1001.1 |
| 20260504005907 | 45 | 311 | 2.0 | 2.0 | 0.00 | 0.01 | 0.01 | 57 | 1001.3 |
| 20260504005404 | 45 | 39 | 1.0 | 2.0 | 0.00 | 0.01 | 0.01 | 56 | 1000.8 |
| 20260504004903 | 46 | 320 | 2.0 | 2.0 | 0.00 | 0.01 | 0.01 | 55 | 1000.9 |
| 20260504004400 | 46 | 357 | 1.0 | 2.0 | 0.00 | 0.01 | 0.01 | 55 | 1000.8 |
| 20260504003856 | 45 | 317 | 3.0 | 4.0 | 0.00 | 0.01 | 0.01 | 54 | 1000.7 |
| 20260504003352 | 46 | 11 | 2.0 | 2.0 | 0.00 | 0.01 | 0.01 | 54 | 1000.5 |
| 20260504002849 | 46 | 17 | 1.0 | 1.0 | 0.00 | 0.01 | 0.01 | 55 | 1000.4 |
| 20260504002346 | 46 | 39 | 0.0 | 1.0 | 0.00 | 0.01 | 0.01 | 54 | 1000.3 |
| 20260504001843 | 46 | 297 | 3.0 | 3.0 | 0.00 | 0.01 | 0.01 | 53 | 1000.5 |
| 20260504001340 | 46 | 330 | 2.0 | 3.0 | 0.00 | 0.01 | 0.01 | 53 | 1000.3 |
| 20260504000837 | 46 | 26 | 1.0 | 1.0 | 0.00 | 0.01 | 0.01 | 54 | 1000.2 |
| 20260504000335 | 46 | 28 | 1.0 | 1.0 | 0.00 | 0.01 | 0.01 | 54 | 1000.0 |
| 20260503235832 | 47 | 45 | 0.0 | 0.0 | 0.00 | 0.01 | 0.01 | 52 | 999.9 |
| 20260503235330 | 47 | 50 | 1.0 | 2.0 | 0.00 | 0.01 | 0.01 | 52 | 1000.0 |
| 20260503234827 | 47 | 49 | 1.0 | 1.0 | 0.00 | 0.01 | 0.01 | 50 | 999.7 |
| 20260503234325 | 47 | 330 | 1.0 | 2.0 | 0.00 | 0.01 | 0.01 | 50 | 999.7 |
| 20260503233822 | 48 | 36 | 1.0 | 1.0 | 0.00 | 0.01 | 0.01 | 50 | 999.8 |
| 20260503233318 | 48 | 26 | 1.0 | 2.0 | 0.00 | 0.01 | 0.01 | 48 | 999.7 |
| 20260503232815 | 48 | 48 | 1.0 | 2.0 | 0.00 | 0.01 | 0.01 | 52 | 999.5 |
| 20260503232312 | 48 | 42 | 1.0 | 2.0 | 0.00 | 0.01 | 0.01 | 51 | 999.4 |
| 20260503231810 | 48 | 317 | 4.0 | 6.0 | 0.00 | 0.01 | 0.01 | 48 | 999.4 |
| 20260503231307 | 48 | 81 | 2.0 | 2.0 | 0.00 | 0.01 | 0.01 | 49 | 999.4 |
| 20260503230803 | 48 | 352 | 4.0 | 6.0 | 0.00 | 0.01 | 0.01 | 49 | 999.3 |
| 20260503230300 | 48 | 318 | 4.0 | 4.0 | 0.00 | 0.01 | 0.01 | 48 | 999.1 |
| 20260503225757 | 49 | 329 | 4.0 | 4.0 | 0.00 | 0.01 | 0.01 | 49 | 999.0 |
| 20260503225252 | 50 | 358 | 1.0 | 2.0 | 0.00 | 0.01 | 0.01 | 49 | 999.0 |
| 20260503224749 | 50 | 111 | 4.0 | 7.0 | 0.00 | 0.01 | 0.01 | 47 | 999.0 |
| 20260503224247 | 50 | 24 | 2.0 | 2.0 | 0.00 | 0.01 | 0.01 | 46 | 999.0 |
| 20260503223744 | 50 | 19 | 3.0 | 3.0 | 0.00 | 0.01 | 0.01 | 45 | 998.9 |
| 20260503223242 | 51 | 5 | 3.0 | 3.0 | 0.00 | 0.01 | 0.01 | 46 | 998.8 |
| 20260503222738 | 51 | 348 | 2.0 | 3.0 | 0.00 | 0.01 | 0.01 | 45 | 998.8 |